Location: Grand Rapids
(42.9630°N, 85.6680°W)
Time: 03:46:17
(UTC-04:00)

Vanguard 1 Rocket - All Passes

Search period start: 30 May 2024 00:00
Search period end: 09 June 2024 00:00
Orbit: 650 x 4220 km, 34.3° (Epoch: 29 May)

Date Brightness Start Highest point End Pass type
(mag) Time Alt. Az. Time Alt. Az. Time Alt. Az.
30 May - 05:02:11 10° SSE 05:16:02 18° SE 05:29:22 10° E visible
30 May - 07:21:47 10° SSW 07:45:00 43° SSE 08:02:59 10° E daylight
30 May - 09:50:51 10° WSW 10:15:17 62° S 10:29:51 10° E daylight
30 May - 12:24:11 10° W 12:44:01 57° SSW 12:54:23 10° ESE daylight
30 May - 14:58:15 10° W 15:09:13 27° SW 15:15:59 10° SSE daylight
31 May - 06:09:31 10° SSW 06:30:17 33° SE 06:48:41 10° E daylight
31 May - 08:35:29 10° SW 09:00:27 57° SSE 09:17:27 10° E daylight
31 May - 11:07:28 10° W 11:30:26 64° S 11:43:01 10° ESE daylight
31 May - 13:41:30 10° W 13:57:27 42° SSW 14:06:12 10° SE daylight
01 Jun - 04:59:23 10° S 05:16:04 23° SE 05:32:26 10° E visible
01 Jun - 07:21:20 10° SW 07:45:21 49° SSE 08:04:19 10° E daylight
01 Jun - 09:51:06 10° WSW 10:16:03 65° S 10:31:08 10° E daylight
01 Jun - 12:24:42 10° W 12:44:50 55° SSW 12:55:33 10° SE daylight
01 Jun - 14:59:30 10° W 15:09:42 22° SW 15:16:24 10° S daylight
02 Jun - 03:54:00 10° SE 04:02:29 13° SE 04:11:11 10° ESE visible
02 Jun - 06:08:37 10° SSW 06:30:25 39° SE 06:50:14 10° E daylight
02 Jun - 08:35:34 10° WSW 09:01:01 61° SSE 09:18:41 10° E daylight
02 Jun - 11:07:55 10° W 11:31:15 63° S 11:44:15 10° ESE daylight
02 Jun - 13:42:15 10° W 13:58:04 37° SW 14:07:03 10° SSE daylight
03 Jun - 04:57:38 10° S 05:16:01 28° SE 05:34:37 10° E visible
03 Jun - 07:21:11 10° SW 07:45:42 54° SSE 08:05:33 10° E daylight
03 Jun - 09:51:29 10° WSW 10:16:46 66° S 10:32:22 10° ESE daylight
03 Jun - 12:25:15 10° W 12:45:31 51° SSW 12:56:36 10° SE daylight
03 Jun - 15:01:03 10° W 15:10:03 18° SW 15:16:23 10° SSW daylight
04 Jun - 03:49:29 10° SSE 04:02:20 18° SE 04:16:01 10° E visible
04 Jun - 06:08:07 10° SSW 06:30:32 45° SSE 06:51:33 10° E daylight
04 Jun - 08:35:50 10° WSW 09:01:35 64° S 09:19:52 10° E daylight
04 Jun - 11:08:24 10° W 11:31:59 61° SSW 11:45:24 10° ESE daylight
04 Jun - 13:43:04 10° W 13:58:31 33° SW 14:07:41 10° SSE daylight
05 Jun - 04:56:34 10° SSW 05:15:55 34° SE 05:36:17 10° E visible
05 Jun - 07:21:16 10° SW 07:46:04 59° SSE 08:06:42 10° E daylight
05 Jun - 09:51:57 10° W 10:17:27 67° S 10:33:32 10° ESE daylight
05 Jun - 12:25:50 10° W 12:46:05 47° SSW 12:57:31 10° SE daylight
05 Jun - 15:03:13 10° W 15:10:16 15° WSW 15:15:41 10° SSW daylight
06 Jun - 03:47:06 10° S 04:02:06 23° SE 04:18:54 10° E visible
06 Jun - 06:07:57 10° SW 06:30:39 50° SSE 06:52:42 10° E daylight
06 Jun - 08:36:14 10° WSW 09:02:09 67° S 09:21:00 10° E daylight
06 Jun - 11:08:55 10° W 11:32:36 58° SSW 11:46:27 10° SE daylight
06 Jun - 13:44:03 10° W 13:58:48 28° SW 14:08:04 10° S daylight
07 Jun - 02:43:09 10° SE 02:49:07 12° ESE 02:55:29 10° ESE visible
07 Jun - 04:56:00 10° SSW 05:15:50 39° SE 05:37:36 10° E visible
07 Jun - 07:21:33 10° WSW 07:46:26 63° SSE 08:07:46 10° E daylight
07 Jun - 09:52:28 10° W 10:18:05 66° S 10:34:38 10° ESE daylight
07 Jun - 12:26:27 10° W 12:46:29 42° SW 12:58:15 10° SSE daylight
07 Jun - 15:07:08 10° WSW 15:10:20 11° WSW 15:13:12 10° SW daylight
08 Jun - 03:45:44 10° S 04:01:52 28° SE 04:20:53 10° E visible
08 Jun - 06:08:03 10° SW 06:30:49 55° SSE 06:53:43 10° E daylight
08 Jun - 08:36:45 10° WSW 09:02:42 68° S 09:22:05 10° ESE daylight
08 Jun - 11:09:27 10° W 11:33:06 55° SSW 11:47:23 10° SE daylight
08 Jun - 13:45:17 10° W 13:58:56 24° SW 14:08:05 10° S daylight
